Volver al catálogo

STARLINK-36104

ActivoComunicacionesVLEO
NORAD 66964·PAYLOAD·🇺🇸 United States

Lanzado Dec 8, 2025 desde Cape Canaveral Space Force Station

Loading…

Próximos Pases (próximas 24 horas)

TLE

ActualizadoSource: CelesTrak SupGP

Época: Sep 14, 2026, 21:22 UTC

1 66964C 25288F   26257.89076389  .00051959  00000+0  18819-2 0  2572
2 66964  43.0041  35.2636 0001755 274.7017 300.1599 15.27552819    19

Sigue STARLINK-36104 en tiempo real con AllMySat

Download on the App Store